Content
SEND FEEDBACK

Daily
Averages
Monthly
Summary
Afghanistan

KAREZ-I-MULLA, AFGHANISTAN


Home > Asia > Afghanistan
Elevation: 3314 feet     Latitude: 31 30N     Longitude: 065 51E

WEATHER
 
SELECT A DAY
Number of Records: 44,422;   Date Range: 10/14/08 - 8/31/14
 
SHARE

PRINT THIS DATA

[ ← Previous Day ]
WEATHER ALMANAC - FEBRUARY 5, 2013
[ Next Day → ]
[ °C ]   °F
Weather ElementAverageHighLow
Temperature42.2 °F51.8 °F (2:20 pm)35.6 °F (7:20 am)
Dewpoint31.4 °F37.4 °F (1:20 am)21.2 °F (4:20 pm)
Humidity69.2 %100 % (3:20 am)30 % (4:20 pm)
Barometer30.06 in30.19 in (11:20 pm)29.93 in (3:20 pm)
Wind Speed8.2 mph20.7 mph (2:20 pm)
Wind Gust29.9 mph (3:20 pm)
Weather ElementAverage
Visibility4.6 mi
Wind DirectionS (179 °)

Weather ElementTotal
Precipitation---
Heating Degree Days21.3 (Base 65)
Averaged from 29 records on February 5, 2013
WEATHER CONDITIONS BREAKOUT
WIND DIRECTION BREAKOUT
WEATHER BY HOUR - FEBRUARY 5, 2013
[ °C ]   °F
Local TimeTemperatureDewpointHumidityBarometerVisibilityWind DirectionWind SpeedGust SpeedPrecipitationEventsConditions
1:20 AM39.2 °F37.4 °F93 %30.05 in6.2 miENE (60°)3.5 mphClear
2:20 AM39.2 °F37.4 °F93 %30.04 in6.2 miVariable2.3 mphClear
3:20 AM37.4 °F37.4 °F100 %30.05 in6.2 miNE (50°)3.5 mphClear
4:20 AM37.4 °F35.6 °F93 %30.06 in6.2 miNE (50°)3.5 mphClear
5:20 AM37.4 °F33.8 °F87 %30.07 in2.5 miSSE (160°)2.3 mphClear
5:47 AM37.4 °F32.0 °F81 %30.07 in1.5 miSouth (170°)6.9 mphClear
6:20 AM37.4 °F32.0 °F81 %30.09 in1.5 miSouth (170°)6.9 mphClear
6:38 AM37.4 °F32.0 °F81 %30.09 in1.1 miSouth (180°)6.9 mphClear
7:20 AM35.6 °F32.0 °F87 %30.10 in1.0 miSouth (190°)4.6 mphClear
8:05 AM37.4 °F32.0 °F81 %30.10 in1.5 miSSW (200°)8.1 mphClear
8:20 AM37.4 °F32.0 °F81 %30.11 in1.5 miSSW (210°)10.4 mphMostly Cloudy
9:20 AM37.4 °F33.8 °F87 %30.12 in1.9 miSW (230°)9.2 mphOvercast
10:00 AM39.2 °F33.8 °F81 %30.11 in3.1 miWSW (240°)5.8 mphOvercast
10:20 AM41.0 °F35.6 °F81 %30.10 in4.3 miSW (230°)11.5 mphOvercast
11:20 AM41.0 °F33.8 °F76 %30.08 in6.2 miSW (230°)8.1 mphMostly Cloudy
11:55 AM44.6 °F33.8 °F66 %30.04 in6.2 miSW (220°)10.4 mph15.0 mphScattered Clouds
12:20 PM44.6 °F33.8 °F66 %30.04 in6.2 miWSW (240°)9.2 mph15.0 mphPartly Cloudy
12:30 PM44.6 °F33.8 °F66 %30.04 in6.2 miSW (220°)10.4 mph15.0 mphScattered Clouds
1:20 PM48.2 °F32.0 °F54 %29.97 in6.2 miWest (260°)8.1 mph15.0 mphPartly Cloudy
2:20 PM51.8 °F26.6 °F38 %29.94 in6.2 miWSW (240°)20.7 mph25.3 mphPartly Cloudy
3:20 PM51.8 °F23.0 °F33 %29.93 in6.2 miWest (260°)19.6 mph29.9 mphPartly Cloudy
4:20 PM51.8 °F21.2 °F30 %29.94 in6.2 miWest (270°)19.6 mph26.5 mphPartly Cloudy
5:20 PM51.8 °F26.6 °F38 %29.96 in6.2 miWest (260°)15.0 mph23.0 mphPartly Cloudy
6:20 PM50.0 °F23.0 °F35 %30.01 in6.2 miWSW (250°)13.8 mphPartly Cloudy
7:20 PM46.4 °F26.6 °F46 %30.05 in5.6 miSSW (210°)2.3 mphHaze
8:20 PM44.6 °F30.2 °F57 %30.09 in5.6 miSouth (170°)4.6 mphHaze
9:20 PM42.8 °F30.2 °F61 %30.12 in5.6 miSSE (150°)4.6 mphHaze
10:20 PM41.0 °F30.2 °F65 %30.15 in5.6 miVariable2.3 mphHaze
11:20 PM39.2 °F30.2 °F70 %30.19 in5.6 miENE (70°)4.6 mphClear
Hourly data recorded from OAKN, located miles away from Karez-i-Mulla, Afghanistan







STORIES FROM OUR PARTNERS